KUIPER-00143

导读 | 豆包AI

KUIPER-00172是美国亚马逊“柯伊伯计划”卫星互联网星座中的一颗近地轨道卫星,于2025年9月25日发射入轨,归属于美国运营商,NORAD编号为65785,COSPAR编号为2025-217Z。 该卫星运行在倾角约93.6°的近地轨道,平均轨道高度约647公里,是亚马逊计划部署的3200余颗第一代柯伊伯星座组网卫星之一,旨在构建覆盖全球的卫星互联网服务,与SpaceX星链系统形成市场竞争。

基本信息
目录编号:
65785
目录名称:
KUIPER-00172
国际标识:
2025-217Z
轨道中心:
EARTH
卫星名称:
KUIPER-00172
卫星全名:
KUIPER-00143
卫星状态:
在轨 (已飞行159 天)
发射日期:
2025-09-25 UTC
国别 :
美国 (US)
星等 :
--
轨道信息
数据来源 国际轨道数据
星历时间: 2026-03-03T04:00:02+0800
8小时前
查看轨道信息
半长轴: 6964.319km
偏心率: 0.0002443
轨道倾角: 51.894°
近地点辐角 284.714°
升交点赤经 49.366°
平近点角 220.918°
近地点: 584.48km
远地点: 587.884km
周期: 96.400分钟
每日圈数: 14.937739
详细信息
使用方式:
暂无
2D轨道图
3D轨道图
轨道高度分析图
轨道倾角分析图
轨道综合分析图
查看轨道综合分析图